sat.trackr.live / text

‹ back to catalog

STARLINK-34121

NORAD 63961 · 2025-099K

PAYLOAD ACTIVE UNKNOWN

§ Identity

Operator
Country
US
Launch date
2025-05-13
Launch site
AFETR
Launch vehicle
Mass (kg)
RCS (m²)

Purposes: comms

External: N2YO · Heavens-Above · Gunter

§ Orbital elements

Epoch: 2026-05-25T04:12:58.523040Z

Period
94.27 min
Inclination
42.9979°
Eccentricity
0.0000832
Mean motion
15.27596346 rev/d
Perigee alt
482.4 km
Apogee alt
483.6 km
Semi-major
6,861.1 km
B*
6.8431e-4
RAAN
104.2829°
Arg perigee
262.0051°
Mean anomaly
98.0706°
Rev number
5,903

§ Raw data

STARLINK-341211 63961U 25099K   26145.17567735  .00018626  00000+0  68431-3 0  99962 63961  42.9979 104.2829 0000832 262.0051  98.0706 15.27596346 59037

JSON: /api/v1/satellites/63961 · /tle

For live sub-satellite position, see the globe view (requires WebGL).

§ Visibility from observer

Set your observer location to see the next 7 days of passes ≥ 10°. The values pass through the URL so the page stays shareable.

No JS? Fill the form by hand. The geolocation button needs JavaScript.